Hourly Weather Roundup
Issued by NWS Central Illinois

Home | Current Version | Previous Version | Text Only | Print | Product List | Glossary On
Versions: 1 2 3 4 5 6 7 8 9 10 11 12 13 14 15 16 17 18 19 20 21 22 23 24 25 26 27 28 29 30 31 32 33 34 35 36 37 38 39 40 41 42 43 44 45 46 47 48 49 50
285
NZUS43 KILX 242210
HWRILX

AREA WEATHER ROUNDUP
NATIONAL WEATHER SERVICE, LINCOLN IL
500 PM CDT SUN JUL 24 2016


CITY           SKY/WX    TMP DP  RH WIND       PRES   REMARKS
BLOOMINGTON    CLOUDY    86  81  85 S9        29.92R HX 102
CHAMPAIGN      CLOUDY    86  79  79 S9        29.92F HX  99
DANVILLE       PTSUNNY   87  79  76 S7        29.91S HX 101
DECATUR        MOSUNNY   93  79  63 S13       29.91F HX 110
EFFINGHAM      MOSUNNY   92  80  67 S7        29.95S HX 109
FLORA          MOSUNNY   93  80  65 S9        29.94S HX 111
GALESBURG      PTSUNNY   88  79  75 NW8       29.89S HX 103
JACKSONVILLE   SUNNY     92  80  66 S12       29.89S HX 110
LACON          PTSUNNY   91  81  71 SW12      29.86S HX 111
LAWRENCEVILLE  MOSUNNY   91  79  67 S7        29.95S HX 107
LITCHFIELD     SUNNY     91  79  68 S8        29.92F HX 106
$$


CITY           SKY/WX    TMP DP  RH WIND       PRES   REMARKS
LINCOLN        CLOUDY    89  83  80 S6        29.89S HX 111
MACOMB         CLOUDY    89  81  77 W6        29.91R HX 106
MATTOON        MOSUNNY   89  77  67 S10       29.93F HX 101
MT CARMEL AP   MOSUNNY   89  77  67 S8        29.95S HX 102
OLNEY-NOBLE AP PTSUNNY   90  79  70 S6        29.94F HX 105
PARIS          MOSUNNY   88  81  79 S6        29.94F HX 106
PEORIA         PTSUNNY   92  83  75 SW13      29.88F HX 116
PONTIAC        MOSUNNY   91  83  79 S10       29.90S HX 115
RANTOUL        NOT AVBL
ROBINSON       MOSUNNY   90  79  69 SW8       29.95S HX 106
SPRINGFIELD    CLOUDY    93  79  63 SW12      29.89F HX 110
TAYLORVILLE    SUNNY     90  81  74 NW10G16   29.91F HX 108
$$

...REGIONAL REPORTS...


CITY           SKY/WX    TMP DP  RH WIND       PRES   REMARKS
CHICAGO O`HARE CLOUDY    91  78  65 SW10      29.84F HX 106
KANKAKEE       NOT AVBL
MOLINE         MOSUNNY   89  78  70 SW6       29.87R HX 103
MOUNT STERLING CLOUDY    90  80  72 SW7       29.89S HX 108
MOUNT VERNON   MOSUNNY   93  75  55 CALM      29.94F HX 104
PITTSFIELD     CLOUDY    92  82  72 W5        29.91S HX 113
QUINCY         CLOUDY    91  79  67 SW8       29.89F HX 107
ROCKFORD       PTSUNNY   94  79  61 SW14      29.86S HX 111
$$


CITY           SKY/WX    TMP DP  RH WIND       PRES   REMARKS
BURLINGTON     CLOUDY    87  81  82 W5        29.89S HX 104
CEDAR RAPIDS   MOSUNNY   85  72  65 NW10      29.90R HX  91
DES MOINES     CLOUDY    86  65  49 N17       29.97R HX  88
KIRKSVILLE     PTSUNNY   89  77  67 NW5       29.94R HX 101
OTTUMWA        PTSUNNY   86  76  71 N13       29.91F HX  96
ST LOUIS       MOSUNNY  100  72  40 SW5       29.90F HX 109
$$


CITY           SKY/WX    TMP DP  RH WIND       PRES   REMARKS
TERRE HAUTE    MOSUNNY   91  77  63 S8        29.95S HX 104
EVANSVILLE     MOSUNNY   91  76  61 SW9       29.96S HX 103
INDIANAPOLIS   PTSUNNY   90  75  61 SW12      29.97S HX 100
LAFAYETTE      MOSUNNY   91  78  65 VRB6      29.92F HX 106
MADISON        PTSUNNY   88  76  67 W7        29.83S HX  99
MILWAUKEE      CLOUDY    92  76  59 S12       29.81S HX 104
$$






USA.gov is the U.S. government's official web portal to all federal, state and local government web resources and services.